[[{"header":{"parameterUnit":"m.s-1","parameterCategory":1,"la1":30.2991,"la2":30.254,"lo1":-89.0895,"lo2":-89.0444,"dy":0.0017,"dx":0.0017,"nx":28,"ny":28,"refTime":"2025-07-23T03:00:00:Z","depth":0,"parameterNumber":2,"parameterNumberName":"U-component_of_WINDS"},"data":[0,0,0,0,0,0,0,0,0,0,0,0,0,0,0,0,0,0,0,0,0,0,0,0,0,0,0,0,0,0,0,0,0,0,0,0,0,0,0,0,0,0,0,0,0,0,0,0,0,0,0,0,0,0,0,0,0,0,-4.642,-4.6422,0,-4.6612,-4.6614,-4.6616,-4.6685,-4.6684,-4.6684,-4.6683,-4.6869,-4.6874,-4.688,0,0,0,0,0,0,0,0,0,0,0,0,0,-4.6101,-4.6106,-4.642,-4.6422,-4.6424,-4.6612,-4.6614,-4.6617,-4.6685,-4.6684,-4.6683,-4.6683,-4.6867,-4.6874,-4.6881,0,0,0,0,0,0,0,0,0,0,0,0,0,-4.626,-4.6108,-4.6419,-4.6481,-4.6489,-4.6611,-4.6614,-4.6617,-4.6685,-4.6684,-4.6683,-4.6682,-4.6865,-4.6873,-4.6881,-4.6953,0,0,-4.6907,-4.6911,0,0,0,0,0,0,0,0,-4.6251,-4.6272,-4.647,-4.6477,-4.6486,-4.6624,-4.657,-4.6729,-4.6685,-4.661,-4.6683,-4.6682,-4.6787,-4.6802,-4.684,-4.6961,-4.6969,-4.6908,-4.6913,-4.6916,-4.6919,0,0,0,0,0,0,0,-4.624,-4.6264,-4.6495,-4.6472,-4.6482,-4.6496,-4.6518,-4.6601,-4.6702,-4.6617,-4.6622,-4.6645,-4.6792,-4.6832,-4.6845,-4.6972,-4.6907,-4.6915,-4.692,-4.6923,-4.7159,-4.716,0,0,0,0,0,0,-4.622,-4.6254,-4.6489,-4.6501,-4.6364,-4.6502,-4.6527,-4.658,-4.6701,-4.6719,-4.6645,-4.6647,-4.6818,-4.6835,-4.6852,-4.6942,-4.6916,-4.6924,-4.6929,-4.7157,-4.7159,-4.716,0,0,0,0,0,0,-4.6213,-4.6241,-4.6482,-4.638,-4.6411,-4.6509,-4.6569,-4.6584,-4.6625,-4.6723,-4.674,-4.6669,-4.6818,-4.684,-4.6927,-4.6949,-4.6928,-4.6935,-4.7156,-4.7158,-4.716,-4.7123,0,0,0,0,0,0,-4.6204,-4.6238,-4.6268,-4.638,-4.6417,-4.6557,-4.657,-4.6589,-4.664,-4.6645,-4.6749,-4.6765,-4.6819,-4.6914,-4.6936,-4.696,-4.6942,-4.7154,-4.7157,-4.7159,-4.7123,-4.7124,-4.7124,0,0,0,0,0,-4.6192,-4.6249,-4.627,-4.6298,-4.6458,-4.6558,-4.6579,-4.6643,-4.6642,-4.6672,-4.6734,-4.6762,-4.6944,-4.6923,-4.6947,-4.6975,-4.7153,-4.7156,-4.7159,-4.7122,-4.7123,-4.7124,0,0,0,0,0,0,-4.6134,-4.6264,-4.6289,-4.6384,-4.646,-4.657,-4.661,-4.6642,-4.6717,-4.6717,-4.6789,-4.6812,-4.6893,-4.6943,-4.6917,-4.7049,-4.705,-4.7057,-4.7014,-4.7015,-4.7016,-4.7002,-4.6949,0,0,0,0,0,-4.6133,-4.6207,-4.6316,-4.6389,-4.6426,-4.6511,-4.6557,-4.66,-4.668,-4.6711,-4.678,-4.6854,-4.6927,-4.6974,-4.7047,-4.713,-4.7152,-4.7161,-4.7161,-4.7162,-4.7167,-4.7212,-4.7217,-4.7169,-4.7169,-4.7169,0,0,-4.613,-4.621,-4.6252,-4.6379,-4.6443,-4.6515,-4.6538,-4.6613,-4.6666,-4.6722,-4.6809,-4.6862,-4.6948,-4.7034,-4.7074,-4.7077,-4.7185,-4.7165,-4.7165,-4.717,-4.7216,-4.722,-4.7224,-4.7171,-4.7171,-4.7171,0,0,-4.6162,-4.6231,-4.6299,-4.6363,-4.6461,-4.6517,-4.6533,-4.6638,-4.6676,-4.6766,-4.6809,-4.687,-4.6996,-4.7056,-4.7103,-4.7155,-4.7183,-4.7177,-4.718,-4.7223,-4.7227,-4.723,-4.7247,-4.7253,-4.7182,-4.7182,-4.7182,0,-4.6145,-4.6259,-4.6329,-4.6403,-4.6456,-4.6513,-4.658,-4.6637,-4.6752,-4.6785,-4.6788,-4.6946,-4.7009,-4.7108,-4.712,-4.7157,-4.7175,-4.7165,-4.7221,-4.7226,-4.723,-4.7247,-4.7253,-4.718,-4.7181,-4.7181,-4.7181,0,-4.6232,-4.631,-4.6353,-4.6466,-4.6524,-4.6593,-4.6671,-4.672,-4.6757,-4.6811,-4.69,-4.6977,-4.7066,-4.7092,-4.7128,-4.7195,-4.7194,-4.7208,-4.721,-4.7232,-4.7249,-4.7256,-4.7178,-4.7179,-4.7179,-4.718,0,0,-4.6233,-4.6384,-4.6399,-4.645,-4.6561,-4.6621,-4.6691,-4.6782,-4.6821,-4.6898,-4.6957,-4.7061,-4.7075,-4.7128,-4.717,-4.7208,-4.7243,-4.7217,-4.722,-4.7218,-4.732,-4.7308,-4.7315,-4.7262,-4.7263,-4.7265,-4.7312,0,-4.6278,-4.6412,-4.6476,-4.658,-4.6651,-4.6705,-4.6766,-4.6838,-4.6891,-4.6956,-4.7012,-4.7085,-4.7098,-4.713,-4.717,-4.723,-4.7264,-4.7228,-4.7314,-4.7316,-4.729,-4.7324,-4.7312,-4.7353,-4.7319,-4.732,-4.7321,0,-4.635,-4.6429,-4.654,-4.6642,-4.6674,-4.6729,-4.6816,-4.6878,-4.696,-4.6995,-4.7054,-4.7095,-4.7168,-4.7165,-4.7264,-4.7238,-4.7277,-4.7311,-4.7314,-4.7324,-4.732,-4.7333,-4.7368,-4.7373,-4.7333,-4.7332,-4.7331,0,-4.6337,-4.6471,-4.6555,-4.6597,-4.6718,-4.6755,-4.6806,-4.6888,-4.6937,-4.7012,-4.7044,-4.7125,-4.7169,-4.7228,-4.7289,-4.7282,-4.7381,-4.7384,-4.7409,-4.7408,-4.7427,-4.7425,-4.7468,-4.7454,-4.7454,-4.7454,-4.7453,0,-4.638,-4.6445,-4.6551,-4.6602,-4.6676,-4.6748,-4.6818,-4.6872,-4.6944,-4.7004,-4.7055,-4.7109,-4.7187,-4.7249,-4.7297,-4.737,-4.739,-4.7418,-4.7429,-4.7413,-4.7409,-4.7439,-4.7437,-4.7455,-4.7455,-4.7455,-4.7454,0,-4.6378,-4.6452,-4.6547,-4.6654,-4.6683,-4.6732,-4.6822,-4.6872,-4.6927,-4.7002,-4.7023,-4.7108,-4.7185,-4.7252,-4.7352,-4.7384,-4.7459,-4.7473,-4.7432,-4.7438,-4.746,-4.7456,-4.7522,-4.7533,-4.7512,-4.7512,-4.7512,0,-4.6401,-4.6453,-4.6567,-4.6612,-4.6664,-4.6736,-4.6788,-4.6859,-4.691,-4.7007,-4.7044,-4.7125,-4.7194,-4.7313,-4.7381,-4.7458,-4.7474,-4.7492,-4.7485,-4.7467,-4.7473,-4.7468,-4.7473,-4.7491,-4.7491,-4.7491,-4.7491,0,-4.6432,-4.6466,-4.6541,-4.6628,-4.6689,-4.6759,-4.6831,-4.6865,-4.6948,-4.7002,-4.7084,-4.7137,-4.7241,-4.7319,-4.7403,-4.7452,-4.7484,-4.7492,-4.7502,-4.7486,-4.7459,-4.7472,-4.7431,-4.749,-4.749,-4.749,-4.749,-4.749,-4.6443,-4.6491,-4.6579,-4.6659,-4.6721,-4.6787,-4.6839,-4.6902,-4.6972,-4.7064,-4.7101,-4.7182,-4.726,-4.7377,-4.7426,-4.7488,-4.7493,-4.7508,-4.7511,-4.7513,-4.751,-4.745,-4.7504,-4.7504,-4.7504,-4.7504,-4.7504,0,-4.6475,-4.6535,-4.6608,-4.6709,-4.6771,-4.68,-4.6881,-4.693,-4.7003,-4.7074,-4.7142,-4.7233,-4.731,-4.7384,-4.7463,-4.7499,-4.7515,-4.7517,-4.7515,-4.7525,-4.7502,-4.7485,-4.7502,-4.7502,-4.7502,-4.7502,-4.7502,-4.7502,-4.65,-4.6583,-4.6627,-4.674,-4.6798,-4.6881,-4.6925,-4.6984,-4.7042,-4.7143,-4.7209,-4.7258,-4.733,-4.7415,-4.7485,-4.7504,-4.753,-4.7528,-4.7551,-4.7527,-4.7527,-4.7526,-4.7511,-4.7533,-4.7533,-4.7569,-4.7569,-4.757]},{"header":{"parameterUnit":"m.s-1","parameterCategory":1,"la1":30.2991,"la2":30.254,"lo1":-89.0895,"lo2":-89.0444,"dy":0.0017,"dx":0.0017,"nx":28,"ny":28,"refTime":"2025-07-23T03:00:00:Z","depth":0,"parameterNumber":3,"parameterNumberName":"V-component_of_WINDS"},"data":[0,0,0,0,0,0,0,0,0,0,0,0,0,0,0,0,0,0,0,0,0,0,0,0,0,0,0,0,0,0,0,0,0,0,0,0,0,0,0,0,0,0,0,0,0,0,0,0,0,0,0,0,0,0,0,0,0,0,1.5662,1.5665,0,1.5917,1.592,1.5923,1.6036,1.6036,1.6035,1.6035,1.6309,1.6316,1.6324,0,0,0,0,0,0,0,0,0,0,0,0,0,1.529,1.5296,1.5662,1.5665,1.5668,1.5917,1.592,1.5924,1.6036,1.6036,1.6035,1.6035,1.6306,1.6315,1.6324,0,0,0,0,0,0,0,0,0,0,0,0,0,1.5489,1.5298,1.5661,1.5754,1.5765,1.5916,1.5921,1.5925,1.6036,1.6036,1.6035,1.6035,1.6303,1.6314,1.6326,1.6408,0,0,1.6361,1.6366,0,0,0,0,0,0,0,0,1.5478,1.5503,1.5737,1.5748,1.576,1.5944,1.589,1.6087,1.6036,1.5934,1.6035,1.6034,1.6189,1.621,1.6259,1.6421,1.6432,1.6362,1.6369,1.6374,1.6377,0,0,0,0,0,0,0,1.5464,1.5492,1.5763,1.5741,1.5755,1.5789,1.5817,1.5928,1.6062,1.5943,1.5951,1.5979,1.6195,1.6248,1.6266,1.6436,1.6361,1.6372,1.6379,1.6383,1.669,1.6691,0,0,0,0,0,0,1.5433,1.548,1.5755,1.5771,1.5614,1.5796,1.5827,1.5886,1.6061,1.6086,1.598,1.5984,1.6228,1.6253,1.6276,1.639,1.6373,1.6384,1.6391,1.6689,1.669,1.6691,0,0,0,0,0,0,1.5424,1.5456,1.5745,1.5628,1.5667,1.5803,1.5868,1.5891,1.5944,1.6088,1.6114,1.6007,1.6229,1.626,1.6376,1.6401,1.6389,1.64,1.6687,1.6689,1.6691,1.6613,0,0,0,0,0,0,1.5413,1.5452,1.5479,1.5628,1.5673,1.5834,1.587,1.5897,1.5962,1.597,1.6122,1.6146,1.6231,1.6358,1.6387,1.6416,1.6409,1.6685,1.6688,1.669,1.6614,1.6612,1.6611,0,0,0,0,0,1.5399,1.5448,1.548,1.5513,1.5709,1.5835,1.5862,1.5954,1.5963,1.5996,1.6091,1.6142,1.6393,1.6369,1.6403,1.6436,1.6684,1.6687,1.669,1.6615,1.6613,1.6611,0,0,0,0,0,0,1.5301,1.5469,1.5506,1.5603,1.5704,1.5853,1.5896,1.5947,1.605,1.6053,1.6169,1.6202,1.6309,1.6385,1.6354,1.653,1.6544,1.6554,1.6476,1.6475,1.6473,1.6453,1.6418,0,0,0,0,0,1.5291,1.5373,1.5518,1.559,1.5638,1.5759,1.5817,1.588,1.599,1.6034,1.6137,1.6246,1.6351,1.6417,1.6521,1.6627,1.6666,1.6668,1.6666,1.6663,1.6671,1.6741,1.6746,1.6701,1.6701,1.6701,0,0,1.527,1.5372,1.5417,1.5573,1.5658,1.5748,1.5793,1.5884,1.5954,1.6049,1.6164,1.6245,1.6376,1.6488,1.6543,1.6554,1.6693,1.6667,1.6664,1.6673,1.6745,1.6749,1.6752,1.6703,1.6702,1.6702,0,0,1.5278,1.5361,1.5433,1.5519,1.5647,1.5729,1.5746,1.589,1.5947,1.6064,1.614,1.6228,1.6404,1.6496,1.6566,1.662,1.6674,1.6651,1.6642,1.6709,1.6713,1.6716,1.6741,1.6748,1.6658,1.6658,1.6658,0,1.5237,1.5369,1.5465,1.5554,1.5624,1.5714,1.5793,1.5873,1.6029,1.6079,1.6089,1.6317,1.6411,1.655,1.6564,1.6616,1.6646,1.6633,1.6703,1.6708,1.6713,1.6739,1.6747,1.6654,1.6655,1.6655,1.6655,0,1.5316,1.5407,1.5452,1.5599,1.5675,1.5758,1.5874,1.594,1.6,1.6082,1.6207,1.6324,1.6456,1.6495,1.6553,1.6646,1.665,1.668,1.6697,1.6712,1.6739,1.6749,1.6649,1.6651,1.6652,1.6653,0,0,1.5263,1.5468,1.5483,1.5555,1.5707,1.5783,1.5876,1.6003,1.6061,1.6169,1.6254,1.6405,1.6437,1.6516,1.6588,1.6647,1.6691,1.6672,1.6677,1.6675,1.6809,1.6786,1.6795,1.6728,1.673,1.6732,1.6799,0,1.5294,1.5456,1.555,1.5677,1.5768,1.586,1.5942,1.6048,1.6131,1.6226,1.6319,1.6426,1.6457,1.6507,1.6569,1.6671,1.672,1.6668,1.6815,1.6819,1.6779,1.6807,1.6782,1.6839,1.681,1.6811,1.6812,0,1.535,1.5455,1.559,1.574,1.5782,1.5852,1.5982,1.6069,1.6196,1.6253,1.6346,1.6419,1.6529,1.6538,1.6696,1.6659,1.6726,1.6787,1.6792,1.681,1.6816,1.6829,1.6859,1.6868,1.6828,1.6827,1.6826,0,1.5302,1.5479,1.5584,1.5643,1.5819,1.5868,1.5945,1.6071,1.6145,1.6261,1.6312,1.644,1.6511,1.6612,1.6722,1.6717,1.6872,1.6888,1.6928,1.6926,1.6955,1.6952,1.6998,1.6995,1.6995,1.6995,1.6994,0,1.5327,1.5407,1.5566,1.5631,1.5727,1.5839,1.5934,1.6019,1.6133,1.6222,1.6312,1.6395,1.6534,1.6637,1.6725,1.6846,1.6877,1.6932,1.6954,1.6924,1.6918,1.697,1.697,1.6997,1.6997,1.6996,1.6996,0,1.5289,1.5397,1.552,1.5679,1.5721,1.5786,1.5926,1.5997,1.6087,1.62,1.6233,1.6376,1.6504,1.6623,1.6793,1.6853,1.6977,1.7005,1.6932,1.6945,1.698,1.6976,1.7063,1.7083,1.7062,1.7062,1.7062,0,1.5297,1.5361,1.5528,1.5593,1.5667,1.577,1.5847,1.5964,1.6041,1.6197,1.6252,1.6385,1.6497,1.6699,1.6822,1.6956,1.699,1.7012,1.701,1.6982,1.6996,1.6991,1.7002,1.7009,1.7009,1.7008,1.7008,0,1.5303,1.5356,1.5459,1.5585,1.5673,1.5779,1.5888,1.5938,1.6078,1.6162,1.6292,1.6379,1.6556,1.669,1.684,1.6928,1.6995,1.7008,1.7025,1.6995,1.6952,1.6981,1.693,1.7005,1.7005,1.7005,1.7006,1.7006,1.5291,1.5355,1.5484,1.56,1.5695,1.5797,1.5874,1.5975,1.6084,1.6233,1.6299,1.6432,1.657,1.6777,1.6866,1.6978,1.6992,1.7015,1.7022,1.7027,1.7023,1.6934,1.7005,1.7006,1.7006,1.7006,1.7006,0,1.5304,1.5393,1.5498,1.5649,1.5743,1.5795,1.5922,1.5999,1.6113,1.6234,1.6344,1.65,1.6633,1.677,1.6914,1.6978,1.7013,1.7012,1.7009,1.7031,1.6999,1.6971,1.6982,1.6982,1.6982,1.6982,1.6982,1.6982,1.5321,1.5434,1.5504,1.567,1.5762,1.589,1.5959,1.6057,1.6155,1.6322,1.6433,1.6521,1.6652,1.6807,1.6936,1.6974,1.7025,1.7016,1.7063,1.7031,1.7031,1.7032,1.7007,1.7025,1.7025,1.7086,1.7087,1.7087]}]]